Time,TemperatureF,DewpointF,PressureIn,WindDirection,WindDirectionDegrees,WindSpeedMPH,WindSpeedGustMPH,Humidity,HourlyPrecipIn,Conditions,Clouds,dailyrainin,SoftwareType,DateUTC
2015-07-01 00:02:00,73.0,52.0,30.22,ENE,64,0.0,0.0,48,-99.99,,,-99.99,,2015-07-01 07:02:00,
2015-07-01 00:12:00,72.0,52.0,30.21,ENE,64,0.0,0.0,49,-99.99,,,-99.99,,2015-07-01 07:12:00,
2015-07-01 00:22:00,72.0,52.0,30.21,ENE,64,0.0,0.0,50,-99.99,,,-99.99,,2015-07-01 07:22:00,
2015-07-01 00:33:00,71.0,51.0,30.21,ENE,64,0.0,0.0,49,-99.99,,,-99.99,,2015-07-01 07:33:00,
2015-07-01 00:43:00,71.0,50.0,30.21,ENE,64,0.0,0.0,48,-99.99,,,-99.99,,2015-07-01 07:43:00,
2015-07-01 00:53:00,70.0,50.0,30.20,ENE,64,0.0,0.0,49,-99.99,,,-99.99,,2015-07-01 07:53:00,
2015-07-01 01:02:00,70.0,50.0,30.20,ENE,64,0.0,0.0,50,-99.99,,,-99.99,,2015-07-01 08:02:00,
2015-07-01 01:12:00,70.0,50.0,30.20,ENE,64,0.0,0.0,49,-99.99,,,-99.99,,2015-07-01 08:12:00,
2015-07-01 01:22:00,69.0,49.0,30.21,ENE,64,0.0,0.0,49,-99.99,,,-99.99,,2015-07-01 08:22:00,
2015-07-01 01:33:00,69.0,50.0,30.21,ENE,64,0.0,0.0,50,-99.99,,,-99.99,,2015-07-01 08:33:00,
2015-07-01 01:43:00,69.0,51.0,30.20,ENE,64,0.0,0.0,52,-99.99,,,-99.99,,2015-07-01 08:43:00,
2015-07-01 01:53:00,68.0,50.0,30.19,ENE,64,0.0,0.0,53,-99.99,,,-99.99,,2015-07-01 08:53:00,
2015-07-01 02:02:00,68.0,51.0,30.19,ENE,64,0.0,1.0,54,-99.99,,,-99.99,,2015-07-01 09:02:00,
2015-07-01 02:12:00,68.0,52.0,30.19,ENE,64,0.0,0.0,56,-99.99,,,-99.99,,2015-07-01 09:12:00,
2015-07-01 02:22:00,68.0,52.0,30.19,ENE,64,0.0,0.0,56,-99.99,,,-99.99,,2015-07-01 09:22:00,
2015-07-01 02:33:00,67.0,51.0,30.19,ENE,64,0.0,0.0,57,-99.99,,,-99.99,,2015-07-01 09:33:00,
2015-07-01 02:43:00,67.0,52.0,30.18,ENE,64,0.0,0.0,58,-99.99,,,-99.99,,2015-07-01 09:43:00,
2015-07-01 02:53:00,67.0,52.0,30.18,ENE,64,0.0,0.0,59,-99.99,,,-99.99,,2015-07-01 09:53:00,
2015-07-01 03:03:00,66.0,51.0,30.18,ENE,64,0.0,0.0,59,-99.99,,,-99.99,,2015-07-01 10:03:00,
2015-07-01 03:12:00,66.0,51.0,30.19,ENE,64,0.0,0.0,59,-99.99,,,-99.99,,2015-07-01 10:12:00,
2015-07-01 03:23:00,66.0,51.0,30.19,ENE,64,0.0,0.0,59,-99.99,,,-99.99,,2015-07-01 10:23:00,
2015-07-01 03:33:00,65.0,50.0,30.19,ENE,64,0.0,0.0,59,-99.99,,,-99.99,,2015-07-01 10:33:00,
2015-07-01 03:43:00,65.0,50.0,30.18,ENE,64,0.0,0.0,59,-99.99,,,-99.99,,2015-07-01 10:43:00,
2015-07-01 03:53:00,65.0,51.0,30.17,ENE,64,0.0,0.0,60,-99.99,,,-99.99,,2015-07-01 10:53:00,
2015-07-01 04:03:00,64.0,50.0,30.17,ENE,64,0.0,0.0,60,-99.99,,,-99.99,,2015-07-01 11:03:00,
2015-07-01 04:13:00,64.0,50.0,30.17,ENE,64,0.0,0.0,61,-99.99,,,-99.99,,2015-07-01 11:13:00,
2015-07-01 04:23:00,64.0,50.0,30.17,ENE,64,0.0,0.0,61,-99.99,,,-99.99,,2015-07-01 11:23:00,
2015-07-01 04:33:00,64.0,51.0,30.17,ENE,64,0.0,0.0,62,-99.99,,,-99.99,,2015-07-01 11:33:00,
2015-07-01 04:43:00,64.0,51.0,30.18,ENE,64,0.0,0.0,62,-99.99,,,-99.99,,2015-07-01 11:43:00,
2015-07-01 04:53:00,63.0,50.0,30.16,ENE,64,0.0,0.0,63,-99.99,,,-99.99,,2015-07-01 11:53:00,
2015-07-01 05:03:00,63.0,51.0,30.16,ENE,64,0.0,0.0,64,-99.99,,,-99.99,,2015-07-01 12:03:00,
2015-07-01 05:12:00,63.0,51.0,30.17,ENE,64,0.0,0.0,64,-99.99,,,-99.99,,2015-07-01 12:12:00,
2015-07-01 05:22:00,63.0,51.0,30.16,ENE,64,0.0,0.0,64,-99.99,,,-99.99,,2015-07-01 12:22:00,
2015-07-01 05:33:00,62.0,50.0,30.16,ENE,64,0.0,0.0,65,-99.99,,,-99.99,,2015-07-01 12:33:00,
2015-07-01 05:43:00,62.0,50.0,30.16,ENE,64,0.0,0.0,64,-99.99,,,-99.99,,2015-07-01 12:43:00,
2015-07-01 05:53:00,62.0,50.0,30.18,ENE,64,0.0,0.0,65,-99.99,,,-99.99,,2015-07-01 12:53:00,
2015-07-01 06:02:00,62.0,50.0,30.18,ENE,64,0.0,0.0,65,-99.99,,,-99.99,,2015-07-01 13:02:00,
2015-07-01 06:22:00,61.0,49.0,30.19,ENE,64,0.0,0.0,65,-99.99,,,-99.99,,2015-07-01 13:22:00,
2015-07-01 06:33:00,61.0,49.0,30.19,ENE,64,0.0,0.0,65,-99.99,,,-99.99,,2015-07-01 13:33:00,
2015-07-01 06:43:00,61.0,50.0,30.19,ENE,64,0.0,0.0,66,-99.99,,,-99.99,,2015-07-01 13:43:00,
2015-07-01 06:53:00,61.0,50.0,30.19,ENE,64,0.0,0.0,67,-99.99,,,-99.99,,2015-07-01 13:53:00,
2015-07-01 07:02:00,61.0,50.0,30.19,ENE,64,0.0,0.0,68,-99.99,,,-99.99,,2015-07-01 14:02:00,
2015-07-01 07:12:00,62.0,52.0,30.20,ENE,64,0.0,0.0,69,-99.99,,,-99.99,,2015-07-01 14:12:00,
2015-07-01 07:22:00,62.0,52.0,30.20,ENE,64,0.0,0.0,69,-99.99,,,-99.99,,2015-07-01 14:22:00,
2015-07-01 07:32:00,63.0,53.0,30.20,ENE,64,0.0,0.0,69,-99.99,,,-99.99,,2015-07-01 14:32:00,
2015-07-01 07:43:00,63.0,53.0,30.21,ENE,64,0.0,0.0,70,-99.99,,,-99.99,,2015-07-01 14:43:00,
2015-07-01 07:53:00,64.0,54.0,30.21,ENE,64,0.0,0.0,69,-99.99,,,-99.99,,2015-07-01 14:53:00,
2015-07-01 08:02:00,65.0,54.0,30.21,ENE,64,0.0,0.0,68,-99.99,,,-99.99,,2015-07-01 15:02:00,
2015-07-01 08:12:00,66.0,54.0,30.21,ENE,64,0.0,0.0,65,-99.99,,,-99.99,,2015-07-01 15:12:00,
2015-07-01 08:23:00,67.0,54.0,30.21,ENE,64,0.0,0.0,64,-99.99,,,-99.99,,2015-07-01 15:23:00,
2015-07-01 08:33:00,67.0,54.0,30.21,ENE,64,0.0,0.0,63,-99.99,,,-99.99,,2015-07-01 15:33:00,
2015-07-01 08:43:00,68.0,54.0,30.22,ENE,64,0.0,0.0,60,-99.99,,,-99.99,,2015-07-01 15:43:00,
2015-07-01 08:53:00,70.0,55.0,30.21,WSW,247,0.0,0.0,58,-99.99,,,-99.99,,2015-07-01 15:53:00,
2015-07-01 09:02:00,72.0,55.0,30.21,SE,137,0.0,0.0,55,-99.99,,,-99.99,,2015-07-01 16:02:00,
2015-07-01 09:12:00,74.0,54.0,30.22,SE,137,0.0,0.0,50,-99.99,,,-99.99,,2015-07-01 16:12:00,
2015-07-01 09:23:00,75.0,53.0,30.20,SE,137,0.0,0.0,46,-99.99,,,-99.99,,2015-07-01 16:23:00,
2015-07-01 09:33:00,77.0,52.0,30.20,SE,137,0.0,1.0,42,-99.99,,,-99.99,,2015-07-01 16:33:00,
2015-07-01 09:43:00,78.0,51.0,30.22,SE,137,0.0,1.0,39,-99.99,,,-99.99,,2015-07-01 16:43:00,
2015-07-01 09:53:00,79.0,53.0,30.20,SE,137,0.0,1.0,40,-99.99,,,-99.99,,2015-07-01 16:53:00,